contact:dominique.lefevre@mio.osupytheas.fr, maurice.libes@osupytheas.fr, didier.mallarino@osupytheas.fr
Project:EMSO http://www.emso-fr.org/EMSO-France
Depth: 2436.0 m
Title:EMSO Ligure Ouest : Data MII capteur CSTAR
DateTime,Latitude,Longitude,Instrument_Serial,Reference_Counts,Signal_Counts,Corrected_Signal_raw_counts,Calculated_Beam_c_inverse_meters,Internal_thermistor_counts
DateTime,Latitude,Longitude,Instrument_Serial,Reference_Counts,Signal_Counts,Corrected_Signal_raw_counts,Calculated_Beam_c_inverse_meters,Internal_thermistor_counts
2023-06-11T00:01:02,42.805,6.029,CST-1368DR,4292,4701,11628,01.180,552
2023-06-11T00:04:03,42.805,6.029,CST-1368DR,4292,4703,11631,01.178,552
2023-06-11T00:07:05,42.805,6.029,CST-1368DR,4292,4702,11629,01.179,552
2023-06-11T00:10:06,42.805,6.029,CST-1368DR,4292,4700,11625,01.181,552
2023-06-11T00:13:08,42.805,6.029,CST-1368DR,4292,4700,11624,01.181,552
2023-06-11T00:16:10,42.805,6.029,CST-1368DR,4292,4700,11626,01.180,552
2023-06-11T00:19:11,42.805,6.029,CST-1368DR,4292,4702,11631,01.178,552
2023-06-11T00:22:13,42.805,6.029,CST-1368DR,4292,4703,11632,01.178,552
2023-06-11T00:25:14,42.805,6.029,CST-1368DR,4292,4703,11632,01.178,552
2023-06-11T00:28:16,42.805,6.029,CST-1368DR,4292,4703,11633,01.178,552
2023-06-11T00:31:17,42.805,6.029,CST-1368DR,4292,4700,11625,01.181,552
2023-06-11T00:34:19,42.805,6.029,CST-1368DR,4292,4703,11631,01.178,552
2023-06-11T00:37:21,42.805,6.029,CST-1368DR,4292,4705,11636,01.177,552
2023-06-11T00:40:22,42.805,6.029,CST-1368DR,4292,4703,11631,01.178,552
2023-06-11T00:43:24,42.805,6.029,CST-1368DR,4292,4703,11633,01.178,552
2023-06-11T00:46:25,42.805,6.029,CST-1368DR,4292,4705,11637,01.176,552
2023-06-11T00:49:27,42.805,6.029,CST-1368DR,4292,4704,11636,01.177,552
2023-06-11T00:52:29,42.805,6.029,CST-1368DR,4292,4703,11633,01.178,552
2023-06-11T00:55:30,42.805,6.029,CST-1368DR,4292,4703,11632,01.178,552
2023-06-11T00:58:32,42.805,6.029,CST-1368DR,4292,4706,11639,01.176,552
2023-06-11T01:01:33,42.805,6.029,CST-1368DR,4292,4705,11637,01.176,552
2023-06-11T01:04:35,42.805,6.029,CST-1368DR,4292,4702,11629,01.179,552
2023-06-11T01:07:36,42.805,6.029,CST-1368DR,4292,4701,11628,01.180,552
2023-06-11T01:10:38,42.805,6.029,CST-1368DR,4292,4704,11636,01.177,552
2023-06-11T01:13:40,42.805,6.029,CST-1368DR,4292,4703,11631,01.178,552
2023-06-11T01:16:41,42.805,6.029,CST-1368DR,4292,4703,11631,01.178,552
2023-06-11T01:19:43,42.805,6.029,CST-1368DR,4292,4704,11636,01.177,552
2023-06-11T01:22:44,42.805,6.029,CST-1368DR,4292,4703,11633,01.178,552
2023-06-11T01:25:46,42.805,6.029,CST-1368DR,4292,4704,11634,01.177,552
2023-06-11T01:28:48,42.805,6.029,CST-1368DR,4292,4702,11631,01.178,552
2023-06-11T01:31:49,42.805,6.029,CST-1368DR,4292,4704,11634,01.177,552
2023-06-11T01:34:51,42.805,6.029,CST-1368DR,4292,4703,11631,01.178,552
2023-06-11T01:37:52,42.805,6.029,CST-1368DR,4292,4705,11638,01.176,552
2023-06-11T01:40:54,42.805,6.029,CST-1368DR,4292,4701,11628,01.180,552
2023-06-11T01:43:55,42.805,6.029,CST-1368DR,4292,4703,11631,01.178,552
2023-06-11T01:46:57,42.805,6.029,CST-1368DR,4292,4702,11631,01.178,552
2023-06-11T01:49:59,42.805,6.029,CST-1368DR,4292,4703,11633,01.178,552
2023-06-11T01:53:00,42.805,6.029,CST-1368DR,4292,4702,11630,01.179,552
2023-06-11T01:56:02,42.805,6.029,CST-1368DR,4292,4703,11633,01.178,552
2023-06-11T01:59:03,42.805,6.029,CST-1368DR,4292,4704,11634,01.177,552
2023-06-11T02:02:05,42.805,6.029,CST-1368DR,4292,4703,11633,01.178,552
2023-06-11T02:05:06,42.805,6.029,CST-1368DR,4292,4701,11628,01.180,552
2023-06-11T02:08:08,42.805,6.029,CST-1368DR,4292,4702,11629,01.179,552
2023-06-11T02:11:10,42.805,6.029,CST-1368DR,4292,4703,11633,01.178,552
2023-06-11T02:14:11,42.805,6.029,CST-1368DR,4292,4702,11631,01.178,552
2023-06-11T02:17:13,42.805,6.029,CST-1368DR,4292,4704,11636,01.177,552
2023-06-11T02:20:14,42.805,6.029,CST-1368DR,4292,4702,11631,01.178,552
2023-06-11T02:23:16,42.805,6.029,CST-1368DR,4292,4701,11628,01.180,552
2023-06-11T02:26:17,42.805,6.029,CST-1368DR,4292,4705,11638,01.176,552
2023-06-11T02:29:19,42.805,6.029,CST-1368DR,4292,4703,11633,01.178,552
2023-06-11T02:32:21,42.805,6.029,CST-1368DR,4292,4705,11637,01.176,552
2023-06-11T02:35:22,42.805,6.029,CST-1368DR,4292,4702,11631,01.178,552
2023-06-11T02:38:24,42.805,6.029,CST-1368DR,4292,4704,11636,01.177,552
2023-06-11T02:41:25,42.805,6.029,CST-1368DR,4292,4704,11634,01.177,552
2023-06-11T02:44:27,42.805,6.029,CST-1368DR,4292,4704,11634,01.177,552
2023-06-11T02:47:29,42.805,6.029,CST-1368DR,4292,4703,11631,01.178,552
2023-06-11T02:50:30,42.805,6.029,CST-1368DR,4292,4701,11628,01.180,552
2023-06-11T02:53:32,42.805,6.029,CST-1368DR,4292,4704,11636,01.177,552
2023-06-11T02:56:33,42.805,6.029,CST-1368DR,4292,4704,11634,01.177,552
2023-06-11T02:59:35,42.805,6.029,CST-1368DR,4292,4704,11636,01.177,552
2023-06-11T03:02:36,42.805,6.029,CST-1368DR,4292,4705,11636,01.177,552
2023-06-11T03:05:38,42.805,6.029,CST-1368DR,4292,4702,11631,01.178,552
2023-06-11T03:08:40,42.805,6.029,CST-1368DR,4292,4703,11631,01.178,552
2023-06-11T03:11:41,42.805,6.029,CST-1368DR,4292,4703,11633,01.178,552
2023-06-11T03:14:43,42.805,6.029,CST-1368DR,4292,4701,11628,01.180,552
2023-06-11T03:17:44,42.805,6.029,CST-1368DR,4292,4702,11630,01.179,552
2023-06-11T03:20:46,42.805,6.029,CST-1368DR,4292,4701,11628,01.180,552
2023-06-11T03:23:47,42.805,6.029,CST-1368DR,4292,4703,11631,01.178,552
2023-06-11T03:26:49,42.805,6.029,CST-1368DR,4292,4701,11628,01.180,552
2023-06-11T03:29:51,42.805,6.029,CST-1368DR,4292,4702,11629,01.179,552
2023-06-11T03:32:52,42.805,6.029,CST-1368DR,4292,4702,11629,01.179,552
2023-06-11T03:35:54,42.805,6.029,CST-1368DR,4292,4702,11629,01.179,552
2023-06-11T03:38:55,42.805,6.029,CST-1368DR,4292,4702,11629,01.179,552
2023-06-11T03:41:57,42.805,6.029,CST-1368DR,4292,4703,11633,01.178,552
2023-06-11T03:44:59,42.805,6.029,CST-1368DR,4292,4702,11629,01.179,552
2023-06-11T03:48:00,42.805,6.029,CST-1368DR,4292,4704,11634,01.177,552
2023-06-11T03:51:02,42.805,6.029,CST-1368DR,4292,4703,11631,01.178,552
2023-06-11T03:54:03,42.805,6.029,CST-1368DR,4292,4702,11629,01.179,552
2023-06-11T03:57:05,42.805,6.029,CST-1368DR,4292,4702,11630,01.179,552
2023-06-11T04:00:06,42.805,6.029,CST-1368DR,4292,4702,11629,01.179,552
2023-06-11T04:03:08,42.805,6.029,CST-1368DR,4292,4701,11626,01.180,552
2023-06-11T04:06:10,42.805,6.029,CST-1368DR,4292,4702,11629,01.179,552
2023-06-11T04:09:11,42.805,6.029,CST-1368DR,4292,4702,11631,01.178,552
2023-06-11T04:12:13,42.805,6.029,CST-1368DR,4292,4701,11626,01.180,552
2023-06-11T04:15:14,42.805,6.029,CST-1368DR,4292,4705,11636,01.177,552
2023-06-11T04:18:16,42.805,6.029,CST-1368DR,4292,4702,11631,01.178,552
2023-06-11T04:21:17,42.805,6.029,CST-1368DR,4292,4703,11633,01.178,552
2023-06-11T04:24:19,42.805,6.029,CST-1368DR,4292,4702,11630,01.179,552
2023-06-11T04:27:21,42.805,6.029,CST-1368DR,4292,4703,11633,01.178,552
2023-06-11T04:30:23,42.805,6.029,CST-1368DR,4292,4704,11634,01.177,552
2023-06-11T04:33:24,42.805,6.029,CST-1368DR,4292,4705,11638,01.176,552
2023-06-11T04:36:26,42.805,6.029,CST-1368DR,4292,4702,11629,01.179,552
2023-06-11T04:39:27,42.805,6.029,CST-1368DR,4292,4701,11626,01.180,552
2023-06-11T04:42:29,42.805,6.029,CST-1368DR,4292,4700,11624,01.181,552
2023-06-11T04:45:30,42.805,6.029,CST-1368DR,4292,4703,11632,01.178,552
2023-06-11T04:48:32,42.805,6.029,CST-1368DR,4292,4704,11634,01.177,552
2023-06-11T04:51:34,42.805,6.029,CST-1368DR,4292,4702,11631,01.178,552
2023-06-11T04:54:35,42.805,6.029,CST-1368DR,4292,4705,11638,01.176,552
2023-06-11T04:57:37,42.805,6.029,CST-1368DR,4292,4705,11637,01.176,552
2023-06-11T05:00:38,42.805,6.029,CST-1368DR,4292,4704,11634,01.177,552
2023-06-11T05:03:40,42.805,6.029,CST-1368DR,4292,4703,11633,01.178,552
2023-06-11T05:06:41,42.805,6.029,CST-1368DR,4292,4702,11629,01.179,552
2023-06-11T05:09:43,42.805,6.029,CST-1368DR,4292,4702,11631,01.178,552
2023-06-11T05:12:45,42.805,6.029,CST-1368DR,4292,4704,11634,01.177,552
2023-06-11T05:15:46,42.805,6.029,CST-1368DR,4292,4705,11636,01.177,552
2023-06-11T05:18:48,42.805,6.029,CST-1368DR,4292,4705,11638,01.176,552
2023-06-11T05:21:49,42.805,6.029,CST-1368DR,4292,4704,11634,01.177,552
2023-06-11T05:24:51,42.805,6.029,CST-1368DR,4292,4702,11630,01.179,552
2023-06-11T05:27:53,42.805,6.029,CST-1368DR,4292,4702,11629,01.179,552
2023-06-11T05:30:54,42.805,6.029,CST-1368DR,4292,4696,11615,01.184,552
2023-06-11T05:33:56,42.805,6.029,CST-1368DR,4292,4698,11621,01.182,552
2023-06-11T05:36:57,42.805,6.029,CST-1368DR,4292,4700,11625,01.181,552
2023-06-11T05:39:59,42.805,6.029,CST-1368DR,4292,4702,11629,01.179,552
2023-06-11T05:43:00,42.805,6.029,CST-1368DR,4292,4703,11633,01.178,552
2023-06-11T05:46:02,42.805,6.029,CST-1368DR,4292,4702,11629,01.179,552
2023-06-11T05:49:04,42.805,6.029,CST-1368DR,4292,4701,11628,01.180,552
2023-06-11T05:52:05,42.805,6.029,CST-1368DR,4292,4701,11628,01.180,552
2023-06-11T05:55:07,42.805,6.029,CST-1368DR,4292,4702,11629,01.179,552
2023-06-11T05:58:08,42.805,6.029,CST-1368DR,4292,4703,11631,01.178,552
2023-06-11T06:01:10,42.805,6.029,CST-1368DR,4292,4702,11629,01.179,552
2023-06-11T06:04:11,42.805,6.029,CST-1368DR,4292,4702,11629,01.179,552
2023-06-11T06:07:13,42.805,6.029,CST-1368DR,4292,4701,11626,01.180,552
2023-06-11T06:10:15,42.805,6.029,CST-1368DR,4292,4703,11632,01.178,552
2023-06-11T06:13:16,42.805,6.029,CST-1368DR,4292,4701,11628,01.180,552
2023-06-11T06:16:18,42.805,6.029,CST-1368DR,4292,4701,11626,01.180,552
2023-06-11T06:19:19,42.805,6.029,CST-1368DR,4292,4703,11631,01.178,552
2023-06-11T06:22:21,42.805,6.029,CST-1368DR,4292,4699,11622,01.182,552
2023-06-11T06:25:23,42.805,6.029,CST-1368DR,4292,4700,11624,01.181,552
2023-06-11T06:28:24,42.805,6.029,CST-1368DR,4292,4699,11622,01.182,552
2023-06-11T06:31:26,42.805,6.029,CST-1368DR,4292,4701,11626,01.180,552
2023-06-11T06:34:28,42.805,6.029,CST-1368DR,4292,4699,11623,01.181,552
2023-06-11T06:37:30,42.805,6.029,CST-1368DR,4292,4700,11624,01.181,552
2023-06-11T06:40:31,42.805,6.029,CST-1368DR,4292,4698,11619,01.183,552
2023-06-11T06:43:33,42.805,6.029,CST-1368DR,4292,4699,11621,01.182,552
2023-06-11T06:46:34,42.805,6.029,CST-1368DR,4292,4698,11620,01.182,552
2023-06-11T06:49:36,42.805,6.029,CST-1368DR,4292,4697,11617,01.183,552
2023-06-11T06:52:37,42.805,6.029,CST-1368DR,4292,4698,11620,01.182,552
2023-06-11T06:55:39,42.805,6.029,CST-1368DR,4292,4700,11626,01.180,552
2023-06-11T06:58:41,42.805,6.029,CST-1368DR,4292,4698,11620,01.182,552
2023-06-11T07:01:42,42.805,6.029,CST-1368DR,4292,4699,11623,01.181,552
2023-06-11T07:04:44,42.805,6.029,CST-1368DR,4292,4697,11616,01.184,552
2023-06-11T07:07:45,42.805,6.029,CST-1368DR,4292,4699,11622,01.182,552
2023-06-11T07:10:47,42.805,6.029,CST-1368DR,4292,4699,11623,01.181,552
2023-06-11T07:13:49,42.805,6.029,CST-1368DR,4292,4700,11625,01.181,552
2023-06-11T07:16:50,42.805,6.029,CST-1368DR,4292,4698,11621,01.182,552
2023-06-11T07:19:52,42.805,6.029,CST-1368DR,4292,4701,11626,01.180,552
2023-06-11T07:22:53,42.805,6.029,CST-1368DR,4292,4700,11625,01.181,552
2023-06-11T07:25:55,42.805,6.029,CST-1368DR,4292,4701,11626,01.180,552
2023-06-11T07:28:56,42.805,6.029,CST-1368DR,4292,4689,11597,01.190,552
2023-06-11T07:31:58,42.805,6.029,CST-1368DR,4292,4690,11600,01.189,552
2023-06-11T07:35:00,42.805,6.029,CST-1368DR,4292,4684,11586,01.194,552
2023-06-11T07:38:01,42.805,6.029,CST-1368DR,4292,4686,11590,01.193,552
2023-06-11T07:41:03,42.805,6.029,CST-1368DR,4292,4688,11595,01.191,552
2023-06-11T07:44:04,42.805,6.029,CST-1368DR,4292,4687,11592,01.192,552
2023-06-11T07:47:06,42.805,6.029,CST-1368DR,4292,4683,11582,01.195,552
2023-06-11T07:50:07,42.805,6.029,CST-1368DR,4292,4689,11597,01.190,552
2023-06-11T07:53:09,42.805,6.029,CST-1368DR,4292,4688,11595,01.191,552
2023-06-11T07:56:11,42.805,6.029,CST-1368DR,4292,4688,11594,01.191,552
2023-06-11T07:59:12,42.805,6.029,CST-1368DR,4292,4689,11599,01.190,552
2023-06-11T08:02:14,42.805,6.029,CST-1368DR,4292,4689,11599,01.190,552
2023-06-11T08:05:15,42.805,6.029,CST-1368DR,4292,4692,11605,01.187,552
2023-06-11T08:08:17,42.805,6.029,CST-1368DR,4292,4689,11597,01.190,552
2023-06-11T08:11:19,42.805,6.029,CST-1368DR,4292,4687,11592,01.192,552
2023-06-11T08:14:20,42.805,6.029,CST-1368DR,4292,4688,11594,01.191,552
2023-06-11T08:17:22,42.805,6.029,CST-1368DR,4292,4685,11587,01.194,552
2023-06-11T08:20:23,42.805,6.029,CST-1368DR,4292,4687,11593,01.192,552
2023-06-11T08:23:25,42.805,6.029,CST-1368DR,4292,4686,11590,01.193,552
2023-06-11T08:26:26,42.805,6.029,CST-1368DR,4292,4684,11584,01.195,552
2023-06-11T08:29:28,42.805,6.029,CST-1368DR,4292,4687,11592,01.192,552
2023-06-11T08:32:29,42.805,6.029,CST-1368DR,4292,4683,11582,01.195,552
2023-06-11T08:35:31,42.805,6.029,CST-1368DR,4292,4684,11586,01.194,552
2023-06-11T08:38:32,42.805,6.029,CST-1368DR,4292,4684,11586,01.194,552
2023-06-11T08:41:34,42.805,6.029,CST-1368DR,4292,4687,11592,01.192,552
2023-06-11T08:44:36,42.805,6.029,CST-1368DR,4292,4687,11592,01.192,552
2023-06-11T08:47:37,42.805,6.029,CST-1368DR,4292,4688,11596,01.191,552
2023-06-11T08:50:39,42.805,6.029,CST-1368DR,4292,4686,11591,01.192,552
2023-06-11T08:53:40,42.805,6.029,CST-1368DR,4292,4683,11583,01.195,552
2023-06-11T08:56:42,42.805,6.029,CST-1368DR,4292,4685,11589,01.193,552
2023-06-11T08:59:43,42.805,6.029,CST-1368DR,4292,4685,11588,01.193,552
2023-06-11T09:02:45,42.805,6.029,CST-1368DR,4292,4685,11589,01.193,552
2023-06-11T09:05:47,42.805,6.029,CST-1368DR,4292,4685,11587,01.194,552
2023-06-11T09:08:48,42.805,6.029,CST-1368DR,4292,4683,11584,01.195,552
2023-06-11T09:11:50,42.805,6.029,CST-1368DR,4292,4686,11589,01.193,552
2023-06-11T09:14:51,42.805,6.029,CST-1368DR,4292,4688,11596,01.191,552
2023-06-11T09:17:53,42.805,6.029,CST-1368DR,4292,4686,11590,01.193,552
2023-06-11T09:20:54,42.805,6.029,CST-1368DR,4292,4682,11579,01.196,552
2023-06-11T09:23:56,42.805,6.029,CST-1368DR,4292,4686,11589,01.193,552
2023-06-11T09:26:58,42.805,6.029,CST-1368DR,4292,4686,11590,01.193,552
2023-06-11T09:29:59,42.805,6.029,CST-1368DR,4292,4685,11588,01.193,552
2023-06-11T09:33:01,42.805,6.029,CST-1368DR,4292,4687,11592,01.192,552
2023-06-11T09:36:02,42.805,6.029,CST-1368DR,4292,4691,11602,01.188,552
2023-06-11T09:39:04,42.805,6.029,CST-1368DR,4292,4687,11593,01.192,552
2023-06-11T09:42:06,42.805,6.029,CST-1368DR,4292,4692,11606,01.187,552
2023-06-11T09:45:07,42.805,6.029,CST-1368DR,4292,4687,11592,01.192,552
2023-06-11T09:48:09,42.805,6.029,CST-1368DR,4292,4687,11592,01.192,552
2023-06-11T09:51:10,42.805,6.029,CST-1368DR,4292,4690,11599,01.190,552
2023-06-11T09:54:12,42.805,6.029,CST-1368DR,4292,4685,11588,01.193,552
2023-06-11T09:57:13,42.805,6.029,CST-1368DR,4292,4687,11592,01.192,552
2023-06-11T10:00:15,42.805,6.029,CST-1368DR,4292,4687,11593,01.192,552
2023-06-11T10:03:17,42.805,6.029,CST-1368DR,4292,4688,11594,01.191,552
2023-06-11T10:06:18,42.805,6.029,CST-1368DR,4292,4683,11583,01.195,552
2023-06-11T10:09:20,42.805,6.029,CST-1368DR,4292,4687,11592,01.192,552
2023-06-11T10:12:21,42.805,6.029,CST-1368DR,4292,4689,11599,01.190,552
2023-06-11T10:15:23,42.805,6.029,CST-1368DR,4292,4688,11595,01.191,552
2023-06-11T10:18:24,42.805,6.029,CST-1368DR,4292,4686,11591,01.192,552
2023-06-11T10:21:26,42.805,6.029,CST-1368DR,4292,4687,11593,01.192,552
2023-06-11T10:24:28,42.805,6.029,CST-1368DR,4292,4687,11592,01.192,552
2023-06-11T10:27:29,42.805,6.029,CST-1368DR,4292,4688,11594,01.191,552
2023-06-11T10:30:32,42.805,6.029,CST-1368DR,4292,4688,11595,01.191,552
2023-06-11T10:33:33,42.805,6.029,CST-1368DR,4292,4687,11592,01.192,552
2023-06-11T10:36:35,42.805,6.029,CST-1368DR,4292,4687,11592,01.192,552
2023-06-11T10:39:37,42.805,6.029,CST-1368DR,4292,4688,11595,01.191,552
2023-06-11T10:42:38,42.805,6.029,CST-1368DR,4292,4688,11594,01.191,552
2023-06-11T10:45:40,42.805,6.029,CST-1368DR,4292,4682,11580,01.196,552
2023-06-11T10:48:41,42.805,6.029,CST-1368DR,4292,4686,11591,01.192,552
2023-06-11T10:51:43,42.805,6.029,CST-1368DR,4292,4686,11590,01.193,552
2023-06-11T10:54:44,42.805,6.029,CST-1368DR,4292,4688,11595,01.191,552
2023-06-11T10:57:46,42.805,6.029,CST-1368DR,4292,4687,11593,01.192,552
2023-06-11T11:00:48,42.805,6.029,CST-1368DR,4292,4687,11592,01.192,552
2023-06-11T11:03:49,42.805,6.029,CST-1368DR,4292,4683,11582,01.195,552
2023-06-11T11:06:51,42.805,6.029,CST-1368DR,4292,4684,11586,01.194,552
2023-06-11T11:09:52,42.805,6.029,CST-1368DR,4292,4688,11595,01.191,552
2023-06-11T11:12:54,42.805,6.029,CST-1368DR,4292,4688,11594,01.191,552
2023-06-11T11:15:55,42.805,6.029,CST-1368DR,4292,4686,11590,01.193,552
2023-06-11T11:18:57,42.805,6.029,CST-1368DR,4292,4687,11592,01.192,552
2023-06-11T11:21:59,42.805,6.029,CST-1368DR,4292,4687,11592,01.192,552
2023-06-11T11:25:00,42.805,6.029,CST-1368DR,4292,4686,11589,01.193,552
2023-06-11T11:28:02,42.805,6.029,CST-1368DR,4292,4686,11590,01.193,552
2023-06-11T11:31:03,42.805,6.029,CST-1368DR,4292,4684,11586,01.194,552
2023-06-11T11:34:05,42.805,6.029,CST-1368DR,4292,4686,11590,01.193,552
2023-06-11T11:37:07,42.805,6.029,CST-1368DR,4292,4685,11589,01.193,552
2023-06-11T11:40:08,42.805,6.029,CST-1368DR,4292,4687,11593,01.192,552
2023-06-11T11:43:10,42.805,6.029,CST-1368DR,4292,4686,11591,01.192,552
2023-06-11T11:46:11,42.805,6.029,CST-1368DR,4291,4687,11594,01.191,552
2023-06-11T11:49:13,42.805,6.029,CST-1368DR,4292,4692,11605,01.187,552
2023-06-11T11:52:14,42.805,6.029,CST-1368DR,4292,4687,11592,01.192,552
2023-06-11T11:55:16,42.805,6.029,CST-1368DR,4292,4689,11597,01.190,552
2023-06-11T11:58:18,42.805,6.029,CST-1368DR,4292,4690,11599,01.190,552
2023-06-11T12:01:19,42.805,6.029,CST-1368DR,4292,4689,11597,01.190,552
2023-06-11T12:04:21,42.805,6.029,CST-1368DR,4292,4690,11600,01.189,552
2023-06-11T12:07:22,42.805,6.029,CST-1368DR,4292,4692,11605,01.187,552
2023-06-11T12:10:24,42.805,6.029,CST-1368DR,4292,4689,11598,01.190,552
2023-06-11T12:13:25,42.805,6.029,CST-1368DR,4292,4689,11598,01.190,552
2023-06-11T12:16:27,42.805,6.029,CST-1368DR,4292,4689,11597,01.190,552
2023-06-11T12:19:29,42.805,6.029,CST-1368DR,4292,4689,11599,01.190,552
2023-06-11T12:22:30,42.805,6.029,CST-1368DR,4292,4687,11593,01.192,552
2023-06-11T12:25:32,42.805,6.029,CST-1368DR,4292,4690,11601,01.189,552
2023-06-11T12:28:33,42.805,6.029,CST-1368DR,4292,4685,11589,01.193,552
2023-06-11T12:31:35,42.805,6.029,CST-1368DR,4292,4691,11602,01.188,552
2023-06-11T12:34:37,42.805,6.029,CST-1368DR,4292,4689,11599,01.190,552
2023-06-11T12:37:38,42.805,6.029,CST-1368DR,4292,4690,11600,01.189,552
2023-06-11T12:40:40,42.805,6.029,CST-1368DR,4292,4689,11599,01.190,552
2023-06-11T12:43:41,42.805,6.029,CST-1368DR,4292,4690,11599,01.190,552
2023-06-11T12:46:43,42.805,6.029,CST-1368DR,4292,4690,11599,01.190,552
2023-06-11T12:49:44,42.805,6.029,CST-1368DR,4291,4690,11604,01.188,552
2023-06-11T12:52:46,42.805,6.029,CST-1368DR,4292,4690,11601,01.189,552
2023-06-11T12:55:48,42.805,6.029,CST-1368DR,4292,4687,11592,01.192,552
2023-06-11T12:58:49,42.805,6.029,CST-1368DR,4292,4690,11600,01.189,552
2023-06-11T13:01:51,42.805,6.029,CST-1368DR,4291,4690,11603,01.188,552
2023-06-11T13:04:52,42.805,6.029,CST-1368DR,4292,4689,11597,01.190,552
2023-06-11T13:07:54,42.805,6.029,CST-1368DR,4292,4688,11594,01.191,552
2023-06-11T13:10:55,42.805,6.029,CST-1368DR,4292,4687,11593,01.192,552
2023-06-11T13:13:57,42.805,6.029,CST-1368DR,4292,4687,11593,01.192,552
2023-06-11T13:16:59,42.805,6.029,CST-1368DR,4292,4687,11592,01.192,552
2023-06-11T13:20:00,42.805,6.029,CST-1368DR,4291,4682,11583,01.195,552
2023-06-11T13:23:02,42.805,6.029,CST-1368DR,4291,4681,11580,01.196,552
2023-06-11T13:26:03,42.805,6.029,CST-1368DR,4291,4682,11584,01.195,552
2023-06-11T13:29:05,42.805,6.029,CST-1368DR,4291,4680,11578,01.197,552
2023-06-11T13:32:07,42.805,6.029,CST-1368DR,4291,4681,11581,01.196,552
2023-06-11T13:35:08,42.805,6.029,CST-1368DR,4292,4683,11584,01.195,552
2023-06-11T13:38:10,42.805,6.029,CST-1368DR,4291,4685,11589,01.193,552
2023-06-11T13:41:11,42.805,6.029,CST-1368DR,4292,4683,11584,01.195,552
2023-06-11T13:44:13,42.805,6.029,CST-1368DR,4292,4685,11588,01.193,552
2023-06-11T13:47:14,42.805,6.029,CST-1368DR,4291,4682,11584,01.195,552
2023-06-11T13:50:16,42.805,6.029,CST-1368DR,4291,4683,11585,01.194,552
2023-06-11T13:53:18,42.805,6.029,CST-1368DR,4291,4684,11588,01.193,552
2023-06-11T13:56:19,42.805,6.029,CST-1368DR,4292,4684,11586,01.194,552
2023-06-11T13:59:21,42.805,6.029,CST-1368DR,4291,4686,11592,01.192,552
2023-06-11T14:02:22,42.805,6.029,CST-1368DR,4291,4684,11589,01.193,552
2023-06-11T14:05:24,42.805,6.029,CST-1368DR,4291,4684,11587,01.194,552
2023-06-11T14:08:25,42.805,6.029,CST-1368DR,4291,4684,11589,01.193,552
2023-06-11T14:11:27,42.805,6.029,CST-1368DR,4291,4686,11592,01.192,552
2023-06-11T14:14:29,42.805,6.029,CST-1368DR,4291,4686,11593,01.192,552
2023-06-11T14:17:30,42.805,6.029,CST-1368DR,4291,4685,11591,01.192,552
2023-06-11T14:20:32,42.805,6.029,CST-1368DR,4291,4685,11591,01.192,552
2023-06-11T14:23:33,42.805,6.029,CST-1368DR,4291,4688,11598,01.190,552
2023-06-11T14:26:35,42.805,6.029,CST-1368DR,4291,4687,11594,01.191,552
2023-06-11T14:29:36,42.805,6.029,CST-1368DR,4291,4688,11599,01.190,552
2023-06-11T14:32:38,42.805,6.029,CST-1368DR,4291,4688,11599,01.190,552
2023-06-11T14:35:40,42.805,6.029,CST-1368DR,4292,4688,11595,01.191,552
2023-06-11T14:38:42,42.805,6.029,CST-1368DR,4291,4684,11589,01.193,552
2023-06-11T14:41:43,42.805,6.029,CST-1368DR,4292,4689,11597,01.190,552
2023-06-11T14:44:45,42.805,6.029,CST-1368DR,4291,4686,11593,01.192,552
2023-06-11T14:47:46,42.805,6.029,CST-1368DR,4291,4685,11591,01.192,552
2023-06-11T14:50:48,42.805,6.029,CST-1368DR,4291,4685,11591,01.192,552
2023-06-11T14:53:50,42.805,6.029,CST-1368DR,4291,4688,11597,01.190,552
2023-06-11T14:56:51,42.805,6.029,CST-1368DR,4291,4689,11599,01.190,552
2023-06-11T14:59:53,42.805,6.029,CST-1368DR,4291,4689,11600,01.189,552
2023-06-11T15:02:54,42.805,6.029,CST-1368DR,4291,4690,11602,01.188,552
2023-06-11T15:05:56,42.805,6.029,CST-1368DR,4291,4684,11588,01.193,552
2023-06-11T15:08:57,42.805,6.029,CST-1368DR,4291,4686,11593,01.192,552
2023-06-11T15:11:59,42.805,6.029,CST-1368DR,4291,4687,11596,01.191,552
2023-06-11T15:15:01,42.805,6.029,CST-1368DR,4291,4689,11599,01.190,552
2023-06-11T15:18:02,42.805,6.029,CST-1368DR,4292,4689,11597,01.190,552
2023-06-11T15:21:04,42.805,6.029,CST-1368DR,4291,4689,11599,01.190,552
2023-06-11T15:24:05,42.805,6.029,CST-1368DR,4291,4687,11595,01.191,552
2023-06-11T15:27:07,42.805,6.029,CST-1368DR,4291,4686,11592,01.192,552
2023-06-11T15:30:08,42.805,6.029,CST-1368DR,4291,4689,11600,01.189,552
2023-06-11T15:33:10,42.805,6.029,CST-1368DR,4291,4688,11597,01.190,552
2023-06-11T15:36:12,42.805,6.029,CST-1368DR,4291,4686,11594,01.191,552
2023-06-11T15:39:13,42.805,6.029,CST-1368DR,4291,4688,11597,01.190,552
2023-06-11T15:42:15,42.805,6.029,CST-1368DR,4291,4688,11597,01.190,552
2023-06-11T15:45:16,42.805,6.029,CST-1368DR,4291,4687,11595,01.191,552
2023-06-11T15:48:18,42.805,6.029,CST-1368DR,4291,4688,11598,01.190,552
2023-06-11T15:51:19,42.805,6.029,CST-1368DR,4291,4687,11596,01.191,552
2023-06-11T15:54:21,42.805,6.029,CST-1368DR,4291,4689,11601,01.189,552
2023-06-11T15:57:23,42.805,6.029,CST-1368DR,4291,4688,11599,01.190,552
2023-06-11T16:00:24,42.805,6.029,CST-1368DR,4291,4686,11594,01.191,552
2023-06-11T16:03:26,42.805,6.029,CST-1368DR,4291,4689,11600,01.189,552
2023-06-11T16:06:27,42.805,6.029,CST-1368DR,4291,4686,11592,01.192,552
2023-06-11T16:09:29,42.805,6.029,CST-1368DR,4291,4683,11586,01.194,552
2023-06-11T16:12:31,42.805,6.029,CST-1368DR,4291,4687,11596,01.191,552
2023-06-11T16:15:32,42.805,6.029,CST-1368DR,4291,4687,11596,01.191,552
2023-06-11T16:18:34,42.805,6.029,CST-1368DR,4291,4687,11595,01.191,552
2023-06-11T16:21:35,42.805,6.029,CST-1368DR,4291,4688,11599,01.190,552
2023-06-11T16:24:37,42.805,6.029,CST-1368DR,4291,4689,11600,01.189,552
2023-06-11T16:27:38,42.805,6.029,CST-1368DR,4291,4687,11596,01.191,552
2023-06-11T16:30:41,42.805,6.029,CST-1368DR,4291,4688,11597,01.190,552
2023-06-11T16:33:43,42.805,6.029,CST-1368DR,4291,4688,11598,01.190,552
2023-06-11T16:36:44,42.805,6.029,CST-1368DR,4291,4677,11571,01.199,552